EW7614 Weather Reports


Display with metric or nautical units.
time (UTC)temp
F
wind
direction
speed
MPH
gust
MPH
rain 1hr
in
rain 24hr
in
rain mn
in
humidity
%
barometer
mb
20260510061533 44 293 0.0 1.0 0.00 0.02 0.01 96 1012.0
20260510060123 43 293 0.0 1.0 0.00 0.02 0.01 97 1012.3
20260510054540 41 292 0.0 0.0 0.01 0.02 0.01 96 1012.5
20260510053119 41 292 0.0 1.0 0.01 0.02 0.01 95 1012.7
20260510051520 41 292 0.0 0.0 0.01 0.02 0.01 96 1012.8
20260510050058 41 292 0.0 0.0 0.01 0.02 0.01 96 1012.9
20260510044518 36 293 0.0 0.0 0.00 0.02 0.00 95 1013.0
20260510043107 38 292 0.0 0.0 0.00 0.02 0.00 97 1013.1
20260510041518 36 292 0.0 0.0 0.00 0.02 0.00 97 1013.4
20260510040110 35 292 0.0 0.0 0.00 0.02 0.00 96 1013.4
20260510034535 36 292 0.0 0.0 0.00 0.02 0.00 97 1013.5
20260510033137 36 292 0.0 0.0 0.00 0.02 0.00 97 1013.6
20260510031546 35 292 0.0 0.0 0.00 0.02 0.00 96 1013.7
20260510030134 36 296 0.0 0.0 0.00 0.02 0.00 96 1013.7
20260510024544 36 296 0.0 0.0 0.00 0.02 0.00 96 1013.7
20260510023132 36 296 0.0 1.0 0.00 0.02 0.00 96 1013.9
20260510021547 37 317 0.0 0.0 0.00 0.02 0.00 96 1013.9
20260510020134 37 317 0.0 0.0 0.00 0.02 0.00 96 1013.9
20260510014549 37 317 0.0 0.0 0.00 0.02 0.00 96 1014.0
20260510013009 38 325 0.0 0.0 0.00 0.02 0.00 96 1014.0
20260510011609 39 326 0.0 0.0 0.00 0.02 0.00 96 1013.7
20260510010030 38 288 0.0 0.0 0.00 0.02 0.00 96 1013.9
20260510004623 38 288 0.0 0.0 0.00 0.02 0.00 96 1013.9
20260510003103 39 288 0.0 1.0 0.00 0.02 0.00 96 1014.0
20260510001509 40 288 0.0 0.0 0.00 0.02 0.00 96 1014.3
20260510000104 40 288 0.0 0.0 0.00 0.02 0.00 95 1014.4
20260509234525 40 288 0.0 0.0 0.00 0.02 0.00 96 1014.5
20260509233059 40 288 0.0 0.0 0.00 0.02 0.00 95 1014.6
20260509231520 41 288 0.0 0.0 0.00 0.02 0.00 95 1014.7
20260509230113 42 288 0.0 0.0 0.00 0.02 0.00 96 1014.8
20260509224546 41 288 0.0 0.0 0.00 0.02 0.00 95 1014.9
20260509223125 42 288 0.0 0.0 0.00 0.02 0.00 95 1014.9
20260509221539 42 288 0.0 0.0 0.00 0.02 0.00 94 1015.0
20260509220003 43 288 0.0 0.0 0.00 0.02 0.00 94 1015.0
20260509214611 43 288 0.0 0.0 0.00 0.02 0.02 94 1015.0
20260509213030 43 288 0.0 0.0 0.00 0.02 0.02 93 1015.0
20260509211628 44 288 0.0 0.0 0.00 0.02 0.02 93 1014.9
20260509210051 44 288 0.0 0.0 0.00 0.02 0.02 93 1014.9
20260509204633 44 288 0.0 0.0 0.00 0.02 0.02 92 1014.9
20260509203057 45 288 0.0 0.0 0.00 0.02 0.02 92 1014.9
20260509201635 46 288 0.0 0.0 0.00 0.02 0.02 90 1014.9
20260509200051 47 259 0.0 0.0 0.00 0.02 0.02 90 1014.8
20260509194506 47 260 0.0 0.0 0.00 0.02 0.02 89 1014.8
20260509193057 48 260 0.0 0.0 0.00 0.02 0.02 88 1014.8
20260509191514 49 274 0.0 0.0 0.00 0.02 0.02 85 1014.5
20260509184524 52 276 0.0 2.0 0.00 0.02 0.02 80 1014.1
20260509183113 52 136 0.0 0.0 0.00 0.02 0.02 80 1013.9
20260509181520 54 136 0.0 1.0 0.00 0.02 0.02 76 1013.6
20260509180117 55 200 0.0 2.0 0.00 0.02 0.02 74 1013.6
20260509174510 58 107 0.0 3.0 0.00 0.02 0.02 67 1013.6
20260509173109 61 248 0.0 3.0 0.00 0.02 0.02 61 1013.3
20260509171631 62 203 0.0 2.0 0.00 0.02 0.02 61 1013.4
20260509170051 60 193 3.0 8.0 0.00 0.02 0.02 61 1013.3
20260509164620 62 216 3.0 8.0 0.00 0.02 0.02 58 1013.6
20260509163030 63 157 0.0 1.0 0.00 0.02 0.02 62 1013.6
20260509161615 63 210 0.0 1.0 0.00 0.02 0.02 62 1013.8
20260509160026 64 316 0.0 1.0 0.00 0.02 0.02 58 1014.1
20260509154615 63 76 0.0 3.0 0.00 0.02 0.02 60 1014.2
20260509153019 63 63 0.0 2.0 0.00 0.02 0.02 69 1014.5
20260509151559 61 300 0.0 3.0 0.01 0.02 0.02 69 1014.8
20260509150136 61 67 0.0 2.0 0.02 0.02 0.02 73 1014.9
20260509144548 56 196 1.0 3.0 0.02 0.02 0.02 85 1014.9
20260509143121 54 59 0.0 1.0 0.02 0.02 0.02 87 1015.0
20260509141541 54 349 0.0 1.0 0.01 0.01 0.01 85 1014.8
20260509140118 54 269 0.0 4.0 0.00 0.00 0.00 84 1014.7
20260509134531 54 201 0.0 1.0 0.00 0.00 0.00 83 1014.2
20260509133113 54 217 0.0 3.0 0.00 0.00 0.00 77 1013.8
20260509131528 57 196 1.0 14.0 0.00 0.00 0.00 62 1013.4
20260509130120 64 302 9.0 15.0 0.00 0.00 0.00 50 1012.8
20260509124511 67 294 2.0 4.0 0.00 0.00 0.00 50 1012.2
20260509123043 68 313 1.0 3.0 0.00 0.00 0.00 50 1012.0
20260509121516 68 281 0.0 2.0 0.00 0.00 0.00 46 1012.0
20260509114513 70 279 1.0 4.0 0.00 0.00 0.00 48 1012.3
20260509113051 69 308 2.0 8.0 0.00 0.00 0.00 51 1012.4
20260509111629 71 195 0.0 3.0 0.00 0.00 0.00 42 1012.4
20260509110026 70 67 0.0 3.0 0.00 0.00 0.00 49 1012.7
20260509104612 67 192 1.0 8.0 0.00 0.00 0.00 51 1013.0
20260509103103 66 334 1.0 5.0 0.00 0.00 0.00 55 1013.3
20260509101626 66 315 3.0 8.0 0.00 0.00 0.00 54 1013.5
20260509100025 66 329 1.0 6.0 0.00 0.00 0.00 53 1013.5
20260509094556 67 18 2.0 8.0 0.00 0.00 0.00 52 1013.7
20260509093115 66 265 1.0 4.0 0.00 0.00 0.00 50 1013.8
20260509091516 64 235 0.0 4.0 0.00 0.00 0.00 54 1014.1
20260509090058 64 300 1.0 6.0 0.00 0.00 0.00 58 1014.2
20260509084505 63 335 1.0 5.0 0.00 0.00 0.00 61 1014.5
20260509083038 61 64 1.0 4.0 0.00 0.00 0.00 63 1014.6
20260509081625 58 140 0.0 2.0 0.00 0.00 0.00 71 1014.8
20260509080030 59 242 0.0 4.0 0.00 0.00 0.00 66 1014.9
20260509074605 59 38 1.0 5.0 0.00 0.00 0.00 67 1015.0
20260509073017 56 209 3.0 9.0 0.00 0.00 0.00 67 1015.2
20260509071552 57 284 0.0 2.0 0.00 0.00 0.00 70 1015.2
20260509070128 55 312 0.0 3.0 0.00 0.00 0.00 75 1015.3
20260509064508 52 316 0.0 2.0 0.00 0.00 0.00 79 1015.2
20260509063121 50 272 0.0 1.0 0.00 0.00 0.00 85 1015.2